User: anonymous   Login
Location: Deep South Regional Star Gaze
(30.9929°N, 90.9586°W)
Time: 13:52:30
(UTC-06:00)
Language:

MSX - Orbit

View from above orbital plane
View from above orbital plane
View from above satellite
View from above satellite

Ground track
Ground track

The orbit data is extracted from the following two-line orbital elements,

1 23851U 96024A   16335.22335822 0.00000000  00000-0  00000-0 0    08
2 23851  98.6808 345.9034 0005504 139.8502 220.1497 13.98042870    07
Epoch (UTC): 30 November 2016 05:21:38
Eccentricity: 0.0005504
inclination: 98.6808°
perigee height: 896 km
apogee height: 904 km
right ascension of ascending node: 345.9034°
argument of perigee: 139.8502°
revolutions per day: 13.98042870
mean anomaly at epoch: 220.1497°
orbit number at epoch: 0

The dashed part of the orbit path shows where the satellite is in the earth's shadow,  

DLR